[[{"header":{"parameterUnit":"m.s-1","parameterCategory":2,"la1":30.2991,"la2":30.254,"lo1":-89.0895,"lo2":-89.0444,"dy":0.0017,"dx":0.0017,"nx":28,"ny":28,"refTime":"2023-10-16T21:00:00:Z","depth":"0","parameterNumber":2,"parameterNumberName":"U-component_of_CURRENTS"},"data":[0,0,0,0,0,0,0,0,0,0,0,0,0,0,0,0,0,0,0,0,0,0,0,0,0,0,0,0,0,0,0,0,0,0,0,0,0,0,0,0,0,0,0,0,0,0,0,0,0,0,0,0,0,0,0,0,0,0,0.2682,0.2683,0,0.275,0.2751,0.2751,0.2786,0.2786,0.2786,0.2786,0.2724,0.2722,0.2721,0,0,0,0,0,0,0,0,0,0,0,0,0,0.262,0.2621,0.2682,0.2683,0.2684,0.275,0.2751,0.2752,0.2786,0.2786,0.2786,0.2786,0.2724,0.2722,0.272,0,0,0,0,0,0,0,0,0,0,0,0,0,0.2664,0.2621,0.2682,0.2708,0.2711,0.2749,0.2751,0.2752,0.2786,0.2786,0.2786,0.2786,0.2725,0.2723,0.272,0.2706,0,0,0.2713,0.2712,0,0,0,0,0,0,0,0,0.2661,0.2666,0.2704,0.2707,0.271,0.2759,0.2706,0.273,0.2786,0.2759,0.2786,0.2786,0.2723,0.2721,0.2737,0.2703,0.2701,0.2713,0.2711,0.271,0.2709,0,0,0,0,0,0,0,0.2658,0.2664,0.271,0.2705,0.2708,0.2729,0.2735,0.2711,0.2739,0.2761,0.2764,0.277,0.2724,0.2739,0.2735,0.27,0.2713,0.271,0.2709,0.2708,0.2678,0.2679,0,0,0,0,0,0,0.2646,0.2661,0.2708,0.2712,0.2684,0.273,0.2737,0.2744,0.2742,0.2742,0.277,0.2771,0.2743,0.2738,0.2733,0.2746,0.271,0.2708,0.2706,0.2678,0.2678,0.2679,0,0,0,0,0,0,0.2645,0.265,0.2705,0.2687,0.2695,0.2731,0.2739,0.2745,0.2764,0.275,0.2748,0.2782,0.2743,0.2736,0.2722,0.2742,0.2707,0.2704,0.2677,0.2678,0.2679,0.2751,0,0,0,0,0,0,0.2643,0.2649,0.2647,0.2686,0.2696,0.2731,0.2739,0.2747,0.2767,0.277,0.2759,0.2753,0.2742,0.2725,0.2719,0.2738,0.2702,0.2676,0.2677,0.2678,0.2748,0.2755,0.276,0,0,0,0,0,0.264,0.264,0.2646,0.2652,0.2693,0.2731,0.2739,0.2764,0.2767,0.278,0.2774,0.2754,0.2729,0.2724,0.2716,0.2735,0.2675,0.2677,0.2678,0.2745,0.2753,0.276,0,0,0,0,0,0,0.2596,0.2645,0.2652,0.2662,0.2694,0.2737,0.2747,0.2765,0.2774,0.2768,0.2757,0.2751,0.2751,0.2726,0.2721,0.273,0.2701,0.2701,0.2754,0.2761,0.2767,0.2777,0.27,0,0,0,0,0,0.2588,0.2603,0.265,0.265,0.2672,0.2709,0.2725,0.2744,0.276,0.2766,0.2761,0.2751,0.2752,0.2743,0.2734,0.2728,0.2783,0.2736,0.2742,0.2747,0.275,0.2869,0.2888,0.2684,0.2684,0.2684,0,0,0.2563,0.2592,0.2596,0.2642,0.2669,0.2703,0.2719,0.2745,0.2768,0.2752,0.2768,0.2768,0.2755,0.2765,0.2761,0.2745,0.2841,0.2749,0.2754,0.2754,0.2873,0.2893,0.2911,0.2685,0.2685,0.2685,0,0,0.2537,0.2557,0.2574,0.2609,0.2655,0.2687,0.2696,0.2744,0.2763,0.2779,0.2783,0.2795,0.2782,0.2795,0.2795,0.2822,0.2873,0.2819,0.2854,0.297,0.2989,0.3006,0.3142,0.317,0.2819,0.2819,0.2819,0,0.251,0.2536,0.258,0.2614,0.2638,0.2682,0.2709,0.274,0.2772,0.2797,0.2784,0.2831,0.28,0.285,0.2854,0.2837,0.2928,0.2831,0.2983,0.3001,0.3017,0.3152,0.3182,0.2823,0.2822,0.2822,0.2822,0,0.2511,0.2533,0.2546,0.2606,0.2639,0.2665,0.2722,0.2754,0.2778,0.2816,0.2872,0.2872,0.2911,0.29,0.2875,0.2974,0.3013,0.2986,0.2974,0.3043,0.3179,0.321,0.2828,0.2827,0.2826,0.2825,0,0,0.2463,0.2534,0.254,0.2571,0.2639,0.2672,0.2715,0.2784,0.2835,0.2875,0.2955,0.2955,0.2994,0.2996,0.2999,0.3067,0.3246,0.3073,0.3078,0.3225,0.3553,0.3516,0.3546,0.3271,0.3276,0.328,0.3618,0,0.2456,0.2504,0.2544,0.259,0.2629,0.2686,0.2731,0.2795,0.2854,0.2942,0.2992,0.3065,0.3026,0.3069,0.3137,0.321,0.3325,0.3159,0.3447,0.3456,0.3429,0.3578,0.3433,0.3715,0.3648,0.3653,0.3656,0,0.2464,0.2495,0.2535,0.2608,0.2632,0.2666,0.2767,0.281,0.2936,0.2992,0.3098,0.3166,0.3283,0.3238,0.3464,0.3376,0.3477,0.3534,0.3549,0.3504,0.3474,0.3625,0.3774,0.3614,0.3704,0.37,0.3697,0,0.2444,0.25,0.2529,0.2553,0.2638,0.2671,0.2718,0.2826,0.2884,0.3053,0.3139,0.33,0.3393,0.355,0.3668,0.3605,0.3927,0.3859,0.3943,0.3944,0.3865,0.3849,0.3899,0.406,0.4059,0.4058,0.4057,0,0.245,0.2485,0.2522,0.255,0.2591,0.2656,0.2728,0.2805,0.2934,0.3046,0.3176,0.3308,0.3475,0.3668,0.3771,0.3973,0.4042,0.3998,0.4039,0.3886,0.3869,0.3756,0.3657,0.4071,0.4068,0.4065,0.4063,0,0.2482,0.2484,0.2543,0.2598,0.2591,0.2644,0.2715,0.2812,0.2908,0.3072,0.3148,0.336,0.3616,0.3802,0.4062,0.4098,0.4178,0.4345,0.4161,0.4171,0.4029,0.3939,0.3983,0.3873,0.4504,0.4505,0.4506,0,0.2532,0.2555,0.2572,0.2594,0.2626,0.2669,0.2725,0.2798,0.2905,0.3109,0.3222,0.3483,0.3685,0.405,0.4196,0.4454,0.4269,0.4424,0.4236,0.4043,0.3976,0.3819,0.371,0.4198,0.4197,0.4196,0.4195,0,0.2658,0.2648,0.2684,0.2668,0.2712,0.2734,0.2807,0.2852,0.2989,0.3116,0.3305,0.3464,0.3818,0.3987,0.4282,0.4393,0.417,0.4402,0.426,0.3796,0.3576,0.348,0.3967,0.4183,0.4184,0.4185,0.4186,0.4186,0.2766,0.2789,0.2773,0.2771,0.2795,0.2783,0.2782,0.2886,0.2963,0.3125,0.3306,0.3512,0.3747,0.4119,0.4192,0.416,0.4144,0.4045,0.3986,0.3872,0.3634,0.4097,0.4295,0.4296,0.4298,0.4299,0.43,0,0.2852,0.283,0.2867,0.2809,0.2819,0.2796,0.2833,0.2833,0.2892,0.3099,0.3243,0.3489,0.3642,0.3791,0.387,0.3761,0.3603,0.3643,0.3363,0.33,0.3789,0.3632,0.3621,0.3621,0.3621,0.3621,0.3622,0.3622,0.288,0.2876,0.2849,0.2805,0.2778,0.2699,0.2689,0.2707,0.2794,0.2916,0.3054,0.323,0.3425,0.3527,0.3432,0.3357,0.3069,0.2988,0.2957,0.3241,0.3271,0.3299,0.3128,0.3011,0.301,0.2353,0.2348,0.2344]},{"header":{"parameterUnit":"m.s-1","parameterCategory":2,"la1":30.2991,"la2":30.254,"lo1":-89.0895,"lo2":-89.0444,"dy":0.0017,"dx":0.0017,"nx":28,"ny":28,"refTime":"2023-10-16T21:00:00:Z","depth":"0","parameterNumber":3,"parameterNumberName":"V-component_of_CURRENTS"},"data":[0,0,0,0,0,0,0,0,0,0,0,0,0,0,0,0,0,0,0,0,0,0,0,0,0,0,0,0,0,0,0,0,0,0,0,0,0,0,0,0,0,0,0,0,0,0,0,0,0,0,0,0,0,0,0,0,0,0,-0.0558,-0.0558,0,-0.0613,-0.0613,-0.0614,-0.0676,-0.0677,-0.0678,-0.0679,-0.0681,-0.068,-0.0679,0,0,0,0,0,0,0,0,0,0,0,0,0,-0.0508,-0.0509,-0.0558,-0.0558,-0.0559,-0.0612,-0.0613,-0.0614,-0.0676,-0.0677,-0.0678,-0.0679,-0.0681,-0.068,-0.0679,0,0,0,0,0,0,0,0,0,0,0,0,0,-0.0544,-0.0509,-0.0557,-0.0595,-0.0599,-0.0612,-0.0613,-0.0614,-0.0676,-0.0677,-0.0679,-0.068,-0.0681,-0.068,-0.0679,-0.0649,0,0,-0.0676,-0.0675,0,0,0,0,0,0,0,0,-0.0542,-0.0546,-0.0589,-0.0593,-0.0597,-0.0638,-0.0597,-0.0623,-0.0676,-0.0648,-0.0679,-0.068,-0.0659,-0.066,-0.0671,-0.0649,-0.0649,-0.0676,-0.0675,-0.0675,-0.0674,0,0,0,0,0,0,0,-0.054,-0.0544,-0.0581,-0.0589,-0.0594,-0.061,-0.0616,-0.0602,-0.0647,-0.0651,-0.0655,-0.0659,-0.0662,-0.0672,-0.0671,-0.0649,-0.0676,-0.0675,-0.0674,-0.0674,-0.0625,-0.0624,0,0,0,0,0,0,-0.0529,-0.0542,-0.0579,-0.0582,-0.057,-0.061,-0.0617,-0.0624,-0.0648,-0.0653,-0.0658,-0.0661,-0.0673,-0.0672,-0.0671,-0.0638,-0.0675,-0.0674,-0.0673,-0.0625,-0.0625,-0.0624,0,0,0,0,0,0,-0.0527,-0.0532,-0.0577,-0.0562,-0.0569,-0.0609,-0.0617,-0.0625,-0.0634,-0.0653,-0.0658,-0.0658,-0.0674,-0.0673,-0.0657,-0.0638,-0.0673,-0.0672,-0.0626,-0.0625,-0.0624,-0.0569,0,0,0,0,0,0,-0.0526,-0.0531,-0.0528,-0.0561,-0.0569,-0.0572,-0.0616,-0.0625,-0.0634,-0.0639,-0.0655,-0.0657,-0.0675,-0.0658,-0.0656,-0.0637,-0.0672,-0.0627,-0.0626,-0.0625,-0.0572,-0.0567,-0.0562,0,0,0,0,0,-0.0524,-0.0512,-0.0527,-0.0532,-0.0565,-0.0571,-0.0576,-0.061,-0.0632,-0.0625,-0.0642,-0.0657,-0.0649,-0.0656,-0.0654,-0.0635,-0.0628,-0.0626,-0.0625,-0.0574,-0.0568,-0.0562,0,0,0,0,0,0,-0.0475,-0.0518,-0.0536,-0.0534,-0.0546,-0.0581,-0.0574,-0.06,-0.0609,-0.0614,-0.0639,-0.0641,-0.0628,-0.0633,-0.0641,-0.0619,-0.0643,-0.0641,-0.0606,-0.06,-0.0595,-0.0549,-0.0671,0,0,0,0,0,-0.0464,-0.0476,-0.0506,-0.05,-0.0503,-0.0536,-0.0542,-0.0566,-0.0581,-0.0588,-0.0603,-0.0615,-0.0618,-0.061,-0.0617,-0.0588,-0.0567,-0.0578,-0.0573,-0.0568,-0.0531,-0.0498,-0.0486,-0.0619,-0.0619,-0.0619,0,0,-0.044,-0.0466,-0.047,-0.0492,-0.0504,-0.0491,-0.0543,-0.0543,-0.0531,-0.0582,-0.0566,-0.0596,-0.0609,-0.0594,-0.0587,-0.0594,-0.052,-0.0567,-0.0563,-0.0526,-0.0495,-0.0482,-0.047,-0.0618,-0.0618,-0.0618,0,0,-0.0389,-0.042,-0.0407,-0.0414,-0.0431,-0.0453,-0.0449,-0.0478,-0.0489,-0.0481,-0.0521,-0.0527,-0.0534,-0.0537,-0.054,-0.0501,-0.0501,-0.0519,-0.0444,-0.0414,-0.0402,-0.0391,-0.0344,-0.0329,-0.0508,-0.0508,-0.0508,0,-0.0356,-0.0348,-0.0397,-0.0378,-0.037,-0.0429,-0.0393,-0.041,-0.0433,-0.0415,-0.0466,-0.046,-0.0498,-0.0448,-0.0465,-0.0485,-0.0466,-0.0468,-0.0405,-0.0394,-0.0383,-0.0338,-0.0322,-0.0505,-0.0506,-0.0506,-0.0506,0,-0.029,-0.0283,-0.0268,-0.0273,-0.027,-0.0251,-0.0278,-0.0274,-0.0306,-0.0319,-0.0291,-0.0342,-0.0321,-0.0363,-0.0412,-0.0357,-0.0366,-0.0409,-0.0415,-0.0366,-0.0322,-0.0306,-0.0501,-0.0502,-0.0503,-0.0504,0,0,-0.0219,-0.0222,-0.0217,-0.0185,-0.0212,-0.0189,-0.0171,-0.0148,-0.0092,-0.0148,-0.0057,-0.0138,-0.0158,-0.0162,-0.0216,-0.0224,-0.0177,-0.0291,-0.0291,-0.0233,-0.0091,-0.0136,-0.0124,-0.0217,-0.0214,-0.0212,-0.0087,0,-0.0147,-0.0081,-0.0114,-0.0039,0.0003,-0.0038,0.0005,0.0014,0.0008,0.0077,0.0028,0.0081,-0.0079,-0.005,-0.0088,-0.0145,-0.0135,-0.0205,-0.0154,-0.0151,-0.019,-0.0108,-0.0164,-0.0061,-0.0072,-0.0069,-0.0068,0,-0.0069,-0.0034,0.0055,0.0109,0.0128,0.0168,0.0248,0.0275,0.0326,0.0335,0.0356,0.033,0.0333,0.0194,0.0139,0.01,0.0021,-0.0047,-0.0044,-0.0085,-0.0168,-0.0114,-0.0034,-0.0267,-0.0044,-0.0046,-0.0048,0,0.0032,0.0084,0.0167,0.0184,0.0236,0.0292,0.0324,0.0371,0.0447,0.0534,0.0621,0.0589,0.0625,0.0513,0.0328,0.0257,0.0274,0.0173,0.0075,0.0071,0.0038,0.0027,-0.0087,0.0172,0.0172,0.0172,0.0171,0,0.0122,0.0193,0.0235,0.0293,0.0422,0.042,0.0572,0.0595,0.0708,0.0845,0.0785,0.0898,0.0697,0.0662,0.0468,0.033,0.0395,0.0133,0.0112,0.0053,0.0042,-0.0153,-0.0249,0.0176,0.0175,0.0174,0.0173,0,0.0234,0.0243,0.0365,0.0451,0.0478,0.059,0.0721,0.085,0.0917,0.1112,0.1168,0.1166,0.1097,0.0898,0.0737,0.0537,0.0285,0.0336,0.0283,0.0252,-0.0095,-0.0184,-0.0229,-0.0308,0.0274,0.0274,0.0273,0,0.0295,0.037,0.0497,0.0574,0.0624,0.0764,0.0877,0.0957,0.1099,0.1273,0.1404,0.1403,0.1414,0.1175,0.0818,0.0553,0.0317,0.0328,0.0162,-0.0081,-0.0194,-0.0275,-0.0344,0.015,0.0149,0.0148,0.0147,0,0.0431,0.0485,0.0585,0.0723,0.0852,0.1001,0.1162,0.1295,0.1422,0.1572,0.1725,0.1755,0.1538,0.1232,0.0857,0.062,0.0164,0.0299,0.0067,-0.0265,-0.0371,-0.0469,0.0041,0.0138,0.0139,0.014,0.014,0.0141,0.0532,0.0617,0.0717,0.0851,0.1008,0.1176,0.1294,0.1474,0.1659,0.1854,0.191,0.1971,0.1569,0.103,0.0713,0.0059,0.0108,-0.0173,-0.024,-0.0285,-0.0428,0.007,0.0112,0.0113,0.0113,0.0114,0.0114,0,0.0579,0.065,0.0812,0.0951,0.1127,0.1187,0.1431,0.1544,0.1723,0.1945,0.205,0.1888,0.1375,0.0835,0.0011,-0.0413,-0.0576,-0.065,-0.0803,-0.0834,-0.0378,-0.0461,-0.0565,-0.0565,-0.0565,-0.0565,-0.0564,-0.0564,0.0587,0.0694,0.0758,0.0972,0.1103,0.1292,0.1415,0.1592,0.1762,0.194,0.1998,0.2037,0.1599,0.0244,-0.0753,-0.0973,-0.1232,-0.1276,-0.1366,-0.1128,-0.1091,-0.1056,-0.1163,-0.1413,-0.1413,-0.1835,-0.1839,-0.1843]}],[{"header":{"parameterUnit":"m.s-1","parameterCategory":2,"la1":30.2991,"la2":30.254,"lo1":-89.0895,"lo2":-89.0444,"dy":0.0017,"dx":0.0017,"nx":28,"ny":28,"refTime":"2023-10-16T21:00:00:Z","depth":"2","parameterNumber":2,"parameterNumberName":"U-component_of_CURRENTS"},"data":[0,0,0,0,0,0,0,0,0,0,0,0,0,0,0,0,0,0,0,0,0,0,0,0,0,0,0,0,0,0,0,0,0,0,0,0,0,0,0,0,0,0,0,0,0,0,0,0,0,0,0,0,0,0,0,0,0,0,0.2265,0.2266,0,0.2301,0.2301,0.2301,0.2316,0.2316,0.2316,0.2316,0.2333,0.2333,0.2333,0,0,0,0,0,0,0,0,0,0,0,0,0,0.2247,0.2247,0.2265,0.2266,0.2267,0.2301,0.2301,0.2301,0.2316,0.2316,0.2316,0.2317,0.2332,0.2333,0.2333,0,0,0,0,0,0,0,0,0,0,0,0,0,0.2262,0.2247,0.2265,0.2281,0.2283,0.2301,0.2301,0.2301,0.2316,0.2316,0.2316,0.2317,0.2332,0.2333,0.2333,0.2326,0,0,0.2334,0.2334,0,0,0,0,0,0,0,0,0.2261,0.2262,0.2278,0.228,0.2282,0.2308,0.2301,0.231,0.2315,0.2299,0.2316,0.2317,0.2325,0.2326,0.2326,0.2326,0.2327,0.2334,0.2334,0.2334,0.2334,0,0,0,0,0,0,0,0.226,0.2261,0.2275,0.2279,0.2281,0.23,0.2302,0.2303,0.2305,0.23,0.2302,0.2313,0.2325,0.2326,0.2326,0.2327,0.2334,0.2334,0.2334,0.2334,0.2368,0.2369,0,0,0,0,0,0,0.2261,0.226,0.2274,0.2277,0.2277,0.23,0.2302,0.2296,0.2306,0.2309,0.2313,0.2314,0.2325,0.2326,0.2327,0.2367,0.2334,0.2334,0.2334,0.2368,0.2369,0.2369,0,0,0,0,0,0,0.226,0.2261,0.2273,0.2273,0.2277,0.23,0.2293,0.2296,0.2318,0.2316,0.2318,0.2333,0.2325,0.2327,0.2339,0.2366,0.2334,0.2334,0.2367,0.2368,0.2369,0.2417,0,0,0,0,0,0,0.2259,0.226,0.2255,0.2273,0.2277,0.2295,0.2293,0.2297,0.2324,0.2326,0.2334,0.2335,0.2326,0.2339,0.2339,0.2366,0.2335,0.2366,0.2367,0.2369,0.2415,0.242,0.2424,0,0,0,0,0,0.2258,0.2247,0.2253,0.2256,0.2268,0.2296,0.2299,0.2315,0.2325,0.2335,0.2339,0.2336,0.2349,0.2339,0.234,0.2367,0.2365,0.2367,0.2368,0.2413,0.2419,0.2424,0,0,0,0,0,0,0.2217,0.2249,0.2256,0.2249,0.2278,0.23,0.2312,0.2328,0.2339,0.234,0.2341,0.2342,0.2368,0.2356,0.2346,0.2381,0.2359,0.236,0.2392,0.2398,0.2403,0.2421,0.2335,0,0,0,0,0,0.221,0.2219,0.2251,0.2245,0.2266,0.2295,0.2309,0.2322,0.2337,0.2344,0.235,0.2356,0.2372,0.2376,0.2381,0.2394,0.2432,0.2413,0.2418,0.2422,0.2438,0.2549,0.2567,0.2375,0.2375,0.2375,0,0,0.219,0.221,0.2212,0.224,0.2264,0.2293,0.2304,0.233,0.2359,0.2342,0.2374,0.2376,0.238,0.2399,0.241,0.2394,0.2489,0.2424,0.2428,0.2441,0.2553,0.2572,0.2589,0.2376,0.2376,0.2376,0,0,0.2175,0.218,0.2199,0.2223,0.2268,0.2291,0.2308,0.2343,0.237,0.2395,0.2399,0.2413,0.2428,0.2436,0.2444,0.2477,0.2517,0.2485,0.252,0.2628,0.2646,0.2662,0.2707,0.2727,0.2481,0.2481,0.2481,0,0.2157,0.2172,0.2206,0.2232,0.2253,0.2298,0.2323,0.236,0.239,0.2419,0.2411,0.246,0.2448,0.2497,0.2501,0.249,0.2551,0.2498,0.2639,0.2656,0.2672,0.2714,0.2736,0.2484,0.2483,0.2483,0.2483,0,0.2157,0.2176,0.219,0.2241,0.2267,0.2292,0.2351,0.2387,0.2423,0.2457,0.252,0.2516,0.2557,0.2545,0.253,0.263,0.2634,0.2641,0.2631,0.2695,0.2734,0.2755,0.2487,0.2486,0.2486,0.2485,0,0,0.2113,0.2182,0.2186,0.2216,0.2272,0.2296,0.2357,0.243,0.2501,0.2524,0.2623,0.2613,0.2643,0.2653,0.2651,0.2711,0.284,0.2727,0.2731,0.2782,0.3068,0.2893,0.2899,0.2903,0.2908,0.2911,0.3041,0,0.2113,0.2153,0.219,0.2235,0.2267,0.2322,0.2389,0.2454,0.2528,0.2636,0.2667,0.2761,0.2685,0.2738,0.2784,0.2844,0.2906,0.2803,0.2989,0.2993,0.2841,0.2921,0.2707,0.2791,0.3062,0.3065,0.3068,0,0.2112,0.2138,0.2184,0.226,0.2283,0.232,0.2436,0.2509,0.2661,0.2735,0.2822,0.2888,0.2972,0.2932,0.305,0.3004,0.3047,0.307,0.3077,0.2917,0.2859,0.2776,0.282,0.3104,0.3101,0.3098,0.3096,0,0.2087,0.2138,0.2177,0.2194,0.2292,0.2332,0.2395,0.2528,0.2634,0.2839,0.2944,0.305,0.3148,0.3217,0.322,0.3195,0.3356,0.3333,0.3204,0.319,0.304,0.3004,0.3459,0.3459,0.3458,0.3458,0.3457,0,0.2085,0.2137,0.2167,0.2198,0.2273,0.2327,0.2455,0.256,0.2735,0.2888,0.3012,0.3135,0.3244,0.3327,0.3316,0.3298,0.3439,0.3228,0.323,0.304,0.3005,0.3301,0.3281,0.3463,0.3462,0.3461,0.346,0,0.2154,0.2143,0.2237,0.2292,0.2283,0.2378,0.2496,0.2622,0.2764,0.298,0.307,0.3259,0.3345,0.3376,0.3493,0.3409,0.3421,0.3387,0.311,0.3073,0.3162,0.3143,0.3284,0.328,0.3276,0.3272,0.3269,0,0.2246,0.2279,0.2322,0.2349,0.2394,0.2472,0.2548,0.2662,0.2787,0.3023,0.3139,0.3291,0.3328,0.3367,0.331,0.3263,0.3344,0.3046,0.2932,0.3166,0.3154,0.3141,0.3128,0.2757,0.275,0.2744,0.274,0,0.2444,0.2452,0.2488,0.2472,0.2524,0.2608,0.2684,0.2747,0.2913,0.3038,0.3147,0.3173,0.3206,0.304,0.2988,0.2936,0.3022,0.2925,0.3331,0.2795,0.2668,0.2656,0.2661,0.2691,0.2696,0.2699,0.2702,0.2704,0.2606,0.2633,0.2563,0.2575,0.2639,0.2657,0.2658,0.2738,0.2814,0.2851,0.295,0.2868,0.2863,0.2616,0.2543,0.2527,0.2698,0.2601,0.262,0.2645,0.2521,0.2391,0.2337,0.2339,0.2342,0.2344,0.2346,0,0.2618,0.2563,0.2629,0.2558,0.2599,0.262,0.2676,0.2613,0.2594,0.264,0.2568,0.2272,0.2155,0.2187,0.208,0.2056,0.2073,0.1993,0.2012,0.2061,0.2105,0.1956,0.1621,0.1619,0.1617,0.1615,0,0,0.2575,0.2487,0.2458,0.2419,0.2436,0.2388,0.2377,0.2308,0.2276,0.2079,0.1991,0.1959,0.2095,0.1801,0.1771,0.1693,0.1868,0.164,0.2224,0.2295,0.2336,0.2459,0.2283,0,0,0,0,0]},{"header":{"parameterUnit":"m.s-1","parameterCategory":2,"la1":30.2991,"la2":30.254,"lo1":-89.0895,"lo2":-89.0444,"dy":0.0017,"dx":0.0017,"nx":28,"ny":28,"refTime":"2023-10-16T21:00:00:Z","depth":"2","parameterNumber":3,"parameterNumberName":"V-component_of_CURRENTS"},"data":[0,0,0,0,0,0,0,0,0,0,0,0,0,0,0,0,0,0,0,0,0,0,0,0,0,0,0,0,0,0,0,0,0,0,0,0,0,0,0,0,0,0,0,0,0,0,0,0,0,0,0,0,0,0,0,0,0,0,0.0017,0.0016,0,-0.0054,-0.0055,-0.0056,-0.0104,-0.0104,-0.0105,-0.0105,-0.0188,-0.019,-0.0192,0,0,0,0,0,0,0,0,0,0,0,0,0,0.0066,0.0065,0.0017,0.0016,0.0015,-0.0054,-0.0055,-0.0056,-0.0104,-0.0104,-0.0105,-0.0105,-0.0188,-0.019,-0.0192,0,0,0,0,0,0,0,0,0,0,0,0,0,0.0024,0.0065,0.0017,-0.0017,-0.002,-0.0054,-0.0055,-0.0056,-0.0104,-0.0104,-0.0105,-0.0105,-0.0187,-0.019,-0.0193,-0.0203,0,0,-0.0202,-0.0203,0,0,0,0,0,0,0,0,0.0026,0.0022,-0.0011,-0.0014,-0.0018,-0.007,-0.0068,-0.0106,-0.0104,-0.0073,-0.0105,-0.0105,-0.0149,-0.0155,-0.0169,-0.0207,-0.021,-0.0202,-0.0204,-0.0205,-0.0206,0,0,0,0,0,0,0,0.0029,0.0025,-0.0012,-0.0012,-0.0016,-0.0043,-0.0049,-0.0076,-0.0109,-0.0076,-0.0079,-0.0086,-0.0151,-0.0166,-0.0171,-0.0212,-0.0202,-0.0205,-0.0206,-0.0208,-0.0266,-0.0266,0,0,0,0,0,0,0.0043,0.0028,-0.001,-0.0014,0.0004,-0.0043,-0.005,-0.0054,-0.0108,-0.0117,-0.0085,-0.0088,-0.016,-0.0167,-0.0174,-0.0184,-0.0205,-0.0208,-0.021,-0.0266,-0.0266,-0.0266,0,0,0,0,0,0,0.0044,0.004,-0.0007,0.0005,-0.0002,-0.0043,-0.0047,-0.0055,-0.0073,-0.0115,-0.0124,-0.0095,-0.0161,-0.017,-0.0195,-0.0188,-0.0209,-0.0212,-0.0266,-0.0266,-0.0266,-0.0207,0,0,0,0,0,0,0.0046,0.0041,0.0047,0.0007,-0.0002,-0.0016,-0.0047,-0.0056,-0.0075,-0.0079,-0.0127,-0.0135,-0.0162,-0.019,-0.0198,-0.0192,-0.0214,-0.0267,-0.0266,-0.0266,-0.0209,-0.0205,-0.0201,0,0,0,0,0,0.0048,0.0059,0.0047,0.0043,0.0006,-0.0015,-0.0022,-0.0054,-0.0075,-0.0074,-0.011,-0.0134,-0.0193,-0.0192,-0.0201,-0.0196,-0.0267,-0.0266,-0.0266,-0.0211,-0.0206,-0.0201,0,0,0,0,0,0,0.0084,0.0054,0.004,0.0042,0.002,-0.0023,-0.0027,-0.0052,-0.0081,-0.0086,-0.0132,-0.0142,-0.0163,-0.0187,-0.0185,-0.0212,-0.0233,-0.0235,-0.0189,-0.0184,-0.018,-0.0157,-0.0217,0,0,0,0,0,0.0096,0.0095,0.0061,0.0064,0.0053,0.0012,-0.0001,-0.0021,-0.0053,-0.0067,-0.0103,-0.0138,-0.0167,-0.0181,-0.021,-0.0223,-0.0244,-0.0226,-0.0222,-0.0218,-0.0205,-0.0218,-0.0214,-0.0264,-0.0264,-0.0264,0,0,0.0108,0.0094,0.0092,0.0072,0.0048,0.0044,0.0003,-0.001,-0.0016,-0.0071,-0.0091,-0.0127,-0.0168,-0.0184,-0.0195,-0.0203,-0.022,-0.0217,-0.0213,-0.0203,-0.0217,-0.0212,-0.0208,-0.0264,-0.0264,-0.0264,0,0,0.0137,0.0122,0.0129,0.0119,0.0096,0.007,0.0068,0.0027,0.0007,-0.0016,-0.0057,-0.0083,-0.0132,-0.0154,-0.0173,-0.0163,-0.0199,-0.0177,-0.0134,-0.0147,-0.0142,-0.0139,-0.0178,-0.0178,-0.0171,-0.0171,-0.0171,0,0.0153,0.0162,0.0129,0.0139,0.0137,0.0085,0.0096,0.0067,0.0025,0.002,-0.0013,-0.0071,-0.0115,-0.0124,-0.0128,-0.0152,-0.0173,-0.0149,-0.014,-0.0136,-0.0133,-0.0174,-0.0175,-0.0168,-0.0169,-0.0169,-0.0169,0,0.0191,0.0198,0.0202,0.0196,0.0189,0.0192,0.0154,0.0143,0.0105,0.0078,0.0055,-0.0005,-0.0027,-0.0058,-0.0097,-0.0095,-0.0123,-0.0134,-0.0148,-0.0124,-0.017,-0.0172,-0.0164,-0.0165,-0.0166,-0.0167,0,0,0.0223,0.0228,0.023,0.0247,0.0224,0.0227,0.0219,0.0205,0.0224,0.0157,0.0184,0.0094,0.0071,0.0048,0.0,-0.003,-0.0051,-0.0072,-0.0074,-0.0103,-0.0096,-0.0157,-0.0165,-0.0057,-0.0056,-0.0056,-0.0143,0,0.0261,0.0305,0.0288,0.0323,0.0341,0.0308,0.0316,0.0301,0.0276,0.0291,0.0218,0.023,0.011,0.0129,0.0066,-0.0009,-0.005,-0.0028,-0.0121,-0.0124,-0.0173,-0.0167,-0.0131,-0.0208,-0.0145,-0.0145,-0.0146,0,0.0301,0.0331,0.038,0.0409,0.0413,0.0429,0.0457,0.0462,0.0458,0.0453,0.0429,0.039,0.0335,0.0257,0.0099,0.012,0.0018,-0.0061,-0.0065,-0.0138,-0.0187,-0.0219,-0.0214,-0.0149,-0.0149,-0.0149,-0.0149,0,0.0354,0.0389,0.0438,0.0449,0.0473,0.0498,0.0513,0.0518,0.0568,0.0591,0.0647,0.0542,0.0552,0.0384,0.0165,0.016,-0.0011,-0.0026,-0.0184,-0.0191,-0.0187,-0.0194,-0.0114,-0.0113,-0.0113,-0.0113,-0.0113,0,0.04,0.0434,0.0478,0.0509,0.0584,0.058,0.0669,0.0672,0.0746,0.0822,0.0754,0.0775,0.0593,0.0457,0.0229,-0.0013,0.0031,-0.0176,-0.021,-0.0171,-0.0174,-0.0139,-0.0141,-0.0116,-0.0116,-0.0115,-0.0114,0,0.0441,0.0459,0.0535,0.0596,0.0611,0.0682,0.0788,0.0877,0.0918,0.1031,0.1069,0.0996,0.0802,0.0559,0.0305,0.0109,-0.0131,-0.0223,-0.0186,-0.0215,-0.0314,-0.0312,-0.037,-0.0372,-0.0375,-0.0377,-0.0378,0,0.0457,0.0507,0.0615,0.068,0.071,0.0811,0.0896,0.0963,0.1055,0.1118,0.1175,0.108,0.0942,0.0525,0.0196,-0.0169,-0.02,-0.0329,-0.033,-0.031,-0.0337,-0.0331,-0.0326,-0.0312,-0.0312,-0.0313,-0.0314,0,0.051,0.0565,0.064,0.0769,0.0872,0.0993,0.1098,0.1193,0.1273,0.134,0.1312,0.1217,0.0866,0.0494,0.0073,-0.0168,-0.0272,-0.0355,-0.0322,-0.0258,-0.0263,-0.0287,-0.0282,-0.032,-0.032,-0.0319,-0.0319,-0.0319,0.056,0.0637,0.074,0.0873,0.0992,0.1124,0.1235,0.1324,0.1427,0.1475,0.1335,0.1184,0.086,0.0278,-0.0067,-0.035,-0.0351,-0.0442,-0.0436,-0.0429,-0.0412,-0.0422,-0.0508,-0.0508,-0.0508,-0.0509,-0.0509,0,0.0622,0.0703,0.0829,0.0982,0.1137,0.1179,0.1343,0.1435,0.1525,0.1477,0.1383,0.0988,0.0618,0.028,-0.0149,-0.0434,-0.0418,-0.0503,-0.0414,-0.0408,-0.0402,-0.0379,-0.0468,-0.0468,-0.0468,-0.0469,0,0,0.0648,0.0777,0.0853,0.1073,0.1196,0.1379,0.1487,0.1576,0.1574,0.143,0.1312,0.1084,0.0691,0.038,0.0003,-0.0213,-0.0234,-0.0252,-0.0261,-0.0105,-0.0095,-0.0352,-0.0309,0,0,0,0,0]}],[{"header":{"parameterUnit":"m.s-1","parameterCategory":2,"la1":30.2991,"la2":30.254,"lo1":-89.0895,"lo2":-89.0444,"dy":0.0017,"dx":0.0017,"nx":28,"ny":28,"refTime":"2023-10-16T21:00:00:Z","depth":"4","parameterNumber":2,"parameterNumberName":"U-component_of_CURRENTS"},"data":[0,0,0,0,0,0,0,0,0,0,0,0,0,0,0,0,0,0,0,0,0,0,0,0,0,0,0,0,0,0,0,0,0,0,0,0,0,0,0,0,0,0,0,0,0,0,0,0,0,0,0,0,0,0,0,0,0,0,0.1038,0.104,0,0.1137,0.1137,0.1138,0.1212,0.1213,0.1214,0.1215,0.1334,0.1336,0.1339,0,0,0,0,0,0,0,0,0,0,0,0,0,0.0913,0.0915,0.1038,0.104,0.1041,0.1136,0.1137,0.1139,0.1212,0.1213,0.1214,0.1216,0.1333,0.1336,0.1339,0,0,0,0,0,0,0,0,0,0,0,0,0,0.0983,0.0916,0.1038,0.1091,0.1097,0.1136,0.1138,0.1139,0.1212,0.1213,0.1215,0.1216,0.1332,0.1336,0.1339,0.1333,0,0,0.135,0.1351,0,0,0,0,0,0,0,0,0.0979,0.0987,0.1082,0.1088,0.1095,0.1166,0.1137,0.1206,0.1212,0.1166,0.1215,0.1217,0.128,0.1288,0.13,0.1339,0.1344,0.135,0.1352,0.1354,0.1355,0,0,0,0,0,0,0,0.0974,0.0983,0.1075,0.1084,0.1091,0.111,0.1121,0.115,0.1213,0.117,0.1176,0.1191,0.1284,0.1296,0.1303,0.1346,0.135,0.1353,0.1355,0.1357,0.1498,0.15,0,0,0,0,0,0,0.0966,0.0978,0.1071,0.1078,0.1042,0.1111,0.1124,0.1139,0.1212,0.1225,0.1189,0.1194,0.1289,0.1299,0.1308,0.1409,0.1354,0.1357,0.1359,0.1496,0.1498,0.15,0,0,0,0,0,0,0.0963,0.0973,0.1068,0.1032,0.1046,0.1112,0.1129,0.1141,0.1184,0.1227,0.124,0.1225,0.1291,0.1303,0.1372,0.141,0.1359,0.1362,0.1494,0.1497,0.1499,0.1544,0,0,0,0,0,0,0.0958,0.0971,0.0994,0.1032,0.1048,0.1113,0.1129,0.1142,0.119,0.1198,0.1261,0.1272,0.1293,0.1366,0.1375,0.1414,0.1364,0.1492,0.1495,0.1498,0.1541,0.1548,0.1554,0,0,0,0,0,0.0954,0.0975,0.0994,0.1007,0.1072,0.1115,0.1125,0.1174,0.1191,0.1216,0.1266,0.1272,0.1392,0.1371,0.138,0.1421,0.1491,0.1495,0.1498,0.1537,0.1546,0.1554,0,0,0,0,0,0,0.0943,0.0986,0.1008,0.1046,0.1088,0.1129,0.1162,0.1186,0.1242,0.1264,0.1293,0.1308,0.1383,0.1393,0.1368,0.1471,0.1442,0.1448,0.1469,0.1477,0.1484,0.1478,0.1367,0,0,0,0,0,0.0947,0.0978,0.1018,0.1057,0.1075,0.112,0.1149,0.1185,0.1233,0.126,0.1301,0.1351,0.1399,0.1432,0.1473,0.1525,0.1512,0.1558,0.1565,0.157,0.1573,0.1597,0.1606,0.1512,0.1512,0.1512,0,0,0.0951,0.0986,0.1002,0.1058,0.1094,0.1131,0.1142,0.1199,0.1242,0.1263,0.134,0.1379,0.1419,0.1487,0.1521,0.1505,0.1585,0.1575,0.158,0.1579,0.1602,0.1611,0.1619,0.1515,0.1515,0.1514,0,0,0.0969,0.1008,0.1033,0.1073,0.1138,0.1164,0.1183,0.1239,0.1278,0.1348,0.1379,0.1441,0.1508,0.1549,0.1574,0.164,0.1621,0.1656,0.1688,0.1713,0.172,0.1727,0.1694,0.1697,0.1659,0.1659,0.1659,0,0.0976,0.1019,0.1049,0.1091,0.1133,0.1178,0.1219,0.1259,0.1337,0.1375,0.1385,0.1502,0.1537,0.1615,0.1645,0.1656,0.1646,0.1653,0.172,0.1727,0.1732,0.1697,0.17,0.1662,0.1662,0.1661,0.1661,0,0.1007,0.1055,0.1077,0.1141,0.1186,0.1237,0.129,0.1344,0.1392,0.1435,0.1529,0.1577,0.1646,0.1668,0.168,0.1748,0.1717,0.1724,0.1695,0.1744,0.1704,0.1706,0.1666,0.1665,0.1664,0.1663,0,0,0.0987,0.1076,0.1092,0.1133,0.1224,0.1261,0.1335,0.1409,0.146,0.1535,0.1593,0.1688,0.1717,0.1747,0.1771,0.1793,0.182,0.178,0.178,0.1738,0.1834,0.1754,0.1748,0.1842,0.1844,0.1845,0.1778,0,0.1007,0.1084,0.113,0.1213,0.1252,0.1324,0.1382,0.1464,0.1528,0.159,0.1652,0.172,0.1745,0.1781,0.1815,0.1843,0.1833,0.1834,0.18,0.1798,0.1715,0.1752,0.185,0.1779,0.178,0.178,0.178,0,0.1017,0.1076,0.115,0.1251,0.1275,0.1333,0.1443,0.1506,0.1601,0.1652,0.1733,0.1767,0.1848,0.1829,0.1895,0.1899,0.1863,0.1853,0.1851,0.1765,0.1725,0.1728,0.1784,0.1784,0.1783,0.1783,0.1783,0,0.0981,0.1088,0.1151,0.1191,0.1302,0.136,0.143,0.1535,0.1594,0.1693,0.1734,0.1827,0.1877,0.189,0.1904,0.1904,0.192,0.1916,0.1786,0.1777,0.1846,0.184,0.1896,0.1896,0.1896,0.1897,0.1897,0,0.0975,0.1027,0.1144,0.1183,0.1268,0.1357,0.1453,0.1529,0.1625,0.1683,0.1769,0.1812,0.1898,0.1919,0.1905,0.187,0.193,0.1789,0.1768,0.1862,0.1859,0.1845,0.184,0.1894,0.1894,0.1895,0.1895,0,0.0917,0.0991,0.1059,0.1192,0.125,0.1309,0.1465,0.1512,0.1626,0.1694,0.1723,0.1827,0.1879,0.1906,0.1918,0.1868,0.1834,0.1773,0.1842,0.1827,0.1658,0.1657,0.1635,0.1632,0.1629,0.1627,0.1625,0,0.0878,0.091,0.1061,0.109,0.1155,0.1273,0.1343,0.1499,0.1544,0.169,0.1692,0.1778,0.1828,0.1779,0.1834,0.1783,0.1749,0.1693,0.1702,0.1656,0.1638,0.1641,0.1642,0.1621,0.162,0.1619,0.1619,0,0.0779,0.0841,0.0893,0.0995,0.1071,0.1174,0.1289,0.1319,0.1471,0.159,0.1626,0.1647,0.1686,0.172,0.1683,0.1647,0.1738,0.1665,0.167,0.1678,0.1639,0.1625,0.1629,0.161,0.1611,0.1612,0.1612,0,0.0666,0.0691,0.0767,0.0858,0.0941,0.1019,0.1123,0.1197,0.1286,0.1448,0.1464,0.1561,0.167,0.1645,0.1625,0.1594,0.1567,0.1498,0.1511,0.1521,0.1524,0.146,0.1357,0,0,0,0,0,0.0549,0.0584,0.0626,0.0716,0.0804,0.0894,0.1039,0.114,0.1307,0.1291,0.1376,0.1406,0.1431,0.1493,0.1434,0.1558,0.1553,0.1482,0.1475,0.156,0.157,0.1588,0,0,0,0,0,0,0.0448,0.049,0.057,0.0584,0.0636,0.0751,0.0848,0.0979,0.0992,0.1154,0.118,0.1309,0.1353,0.1436,0.1401,0.1415,0.1378,0.1557,0.1553,0.1554,0.1564,0.1572,0.1594,0,0,0,0,0]},{"header":{"parameterUnit":"m.s-1","parameterCategory":2,"la1":30.2991,"la2":30.254,"lo1":-89.0895,"lo2":-89.0444,"dy":0.0017,"dx":0.0017,"nx":28,"ny":28,"refTime":"2023-10-16T21:00:00:Z","depth":"4","parameterNumber":3,"parameterNumberName":"V-component_of_CURRENTS"},"data":[0,0,0,0,0,0,0,0,0,0,0,0,0,0,0,0,0,0,0,0,0,0,0,0,0,0,0,0,0,0,0,0,0,0,0,0,0,0,0,0,0,0,0,0,0,0,0,0,0,0,0,0,0,0,0,0,0,0,0.0324,0.0323,0,0.026,0.0259,0.0258,0.0222,0.0222,0.0223,0.0223,0.0146,0.0144,0.0141,0,0,0,0,0,0,0,0,0,0,0,0,0,0.0376,0.0375,0.0324,0.0323,0.0323,0.026,0.0259,0.0257,0.0222,0.0222,0.0223,0.0223,0.0146,0.0144,0.0141,0,0,0,0,0,0,0,0,0,0,0,0,0,0.0334,0.0375,0.0324,0.03,0.0297,0.026,0.0259,0.0257,0.0222,0.0222,0.0223,0.0223,0.0147,0.0144,0.0141,0.0115,0,0,0.0131,0.0129,0,0,0,0,0,0,0,0,0.0337,0.0332,0.0304,0.0301,0.0298,0.0252,0.0249,0.021,0.0222,0.0247,0.0223,0.0223,0.0182,0.0176,0.0159,0.0111,0.0108,0.013,0.0128,0.0127,0.0126,0,0,0,0,0,0,0,0.034,0.0334,0.0295,0.0303,0.03,0.0279,0.0273,0.0241,0.0211,0.0245,0.0243,0.0241,0.018,0.0162,0.0157,0.0107,0.0131,0.0128,0.0126,0.0124,0.0033,0.0033,0,0,0,0,0,0,0.0355,0.0337,0.0297,0.0294,0.0322,0.0278,0.0272,0.0264,0.0212,0.0205,0.0241,0.024,0.0168,0.0161,0.0154,0.0126,0.0127,0.0124,0.0122,0.0034,0.0033,0.0033,0,0,0,0,0,0,0.0356,0.0352,0.03,0.0317,0.0309,0.0278,0.0269,0.0263,0.0253,0.0209,0.0202,0.0239,0.0168,0.0159,0.0126,0.0123,0.0122,0.0119,0.0034,0.0033,0.0033,0.0067,0,0,0,0,0,0,0.0358,0.0353,0.0357,0.0318,0.0309,0.0281,0.0269,0.0261,0.0252,0.025,0.0205,0.0197,0.0167,0.0131,0.0123,0.0118,0.0117,0.0035,0.0034,0.0033,0.0067,0.0068,0.0069,0,0,0,0,0,0.036,0.0359,0.0357,0.0353,0.0314,0.0282,0.0275,0.0251,0.0252,0.0244,0.0214,0.0199,0.012,0.0128,0.0118,0.0113,0.0035,0.0034,0.0033,0.0066,0.0068,0.0069,0,0,0,0,0,0,0.0378,0.0355,0.0351,0.0343,0.0319,0.0277,0.0271,0.0258,0.0228,0.0229,0.0191,0.0181,0.0151,0.0126,0.0136,0.0084,0.0076,0.0073,0.0104,0.0105,0.0106,0.0107,0.0114,0,0,0,0,0,0.0388,0.0383,0.0355,0.0348,0.034,0.031,0.0297,0.0281,0.0249,0.0237,0.0205,0.0171,0.0137,0.0119,0.0084,0.0056,0.0011,0.0046,0.0047,0.0048,0.0041,-0.0031,-0.0037,0.0029,0.0029,0.0029,0,0,0.0392,0.038,0.0377,0.0353,0.0333,0.0319,0.0302,0.0283,0.0271,0.0233,0.0206,0.0174,0.013,0.0096,0.0081,0.0077,0.0006,0.0047,0.0048,0.0041,-0.0033,-0.0039,-0.0045,0.0029,0.0029,0.0029,0,0,0.0395,0.0389,0.0387,0.0372,0.0351,0.033,0.033,0.0294,0.0278,0.025,0.0219,0.0182,0.0137,0.0096,0.0073,0.0058,0.0015,0.0056,0.006,-0.0009,-0.0016,-0.0022,-0.0086,-0.0098,0.0056,0.0056,0.0056,0,0.0404,0.0397,0.038,0.0373,0.0365,0.034,0.0333,0.031,0.0267,0.0247,0.0248,0.0161,0.0132,0.0076,0.0075,0.006,0.0016,0.0062,-0.0008,-0.0015,-0.0022,-0.0086,-0.01,0.0057,0.0057,0.0057,0.0057,0,0.04,0.0401,0.0397,0.0384,0.037,0.0359,0.0332,0.0314,0.0299,0.0268,0.0216,0.0167,0.0112,0.0103,0.0088,0.0027,0.001,0.0003,-0.001,-0.0027,-0.0093,-0.0108,0.0059,0.0059,0.0058,0.0058,0,0,0.0397,0.0398,0.0397,0.0397,0.0378,0.0361,0.0346,0.0311,0.0287,0.025,0.0203,0.0155,0.0124,0.0095,0.0063,0.0011,-0.0065,-0.0005,-0.0009,-0.0065,-0.022,-0.0162,-0.0173,-0.0083,-0.0086,-0.0088,-0.0247,0,0.0399,0.0405,0.0399,0.0394,0.039,0.037,0.0354,0.0319,0.0283,0.0229,0.0174,0.0118,0.0122,0.009,0.004,-0.0043,-0.0103,-0.0022,-0.0199,-0.0205,-0.0148,-0.0187,-0.0095,-0.0258,-0.0262,-0.0264,-0.0266,0,0.0389,0.0398,0.0406,0.04,0.0396,0.039,0.0352,0.0332,0.0259,0.0228,0.0165,0.011,0.0028,0.0032,-0.0117,-0.0064,-0.0138,-0.0199,-0.0207,-0.0175,-0.0173,-0.024,-0.0294,-0.0291,-0.0289,-0.0288,-0.0286,0,0.0381,0.0393,0.0405,0.0404,0.0395,0.0393,0.0384,0.0331,0.0304,0.0217,0.0173,0.0074,0.0012,-0.0091,-0.0187,-0.0168,-0.0355,-0.0353,-0.0377,-0.0375,-0.0395,-0.0387,-0.0474,-0.0474,-0.0473,-0.0473,-0.0472,0,0.0369,0.0368,0.0409,0.0408,0.0406,0.0405,0.0382,0.035,0.0298,0.0258,0.0174,0.0118,-0.0021,-0.0133,-0.0219,-0.0334,-0.0386,-0.0391,-0.0416,-0.0376,-0.0364,-0.0405,-0.0395,-0.0479,-0.0477,-0.0476,-0.0475,0,0.0325,0.0358,0.036,0.0386,0.0398,0.0389,0.039,0.0369,0.0327,0.0267,0.0238,0.0121,-0.0002,-0.0141,-0.0321,-0.0369,-0.0493,-0.0523,-0.0475,-0.0492,-0.0465,-0.0451,-0.0587,-0.0586,-0.0586,-0.0585,-0.0585,0,0.0297,0.0308,0.0343,0.0351,0.0361,0.0373,0.0381,0.0373,0.0357,0.0284,0.025,0.012,0.0041,-0.0172,-0.0305,-0.0493,-0.0497,-0.0578,-0.0515,-0.0468,-0.0479,-0.0466,-0.0454,-0.0584,-0.0584,-0.0584,-0.0583,0,0.0247,0.0268,0.0277,0.0324,0.0344,0.0356,0.0378,0.0371,0.0366,0.0317,0.0265,0.0157,0.0016,-0.0137,-0.0286,-0.041,-0.0535,-0.0573,-0.0575,-0.0515,-0.0466,-0.0475,-0.0463,-0.0582,-0.0582,-0.0582,-0.0582,0,0.0221,0.0215,0.0273,0.0296,0.0329,0.0365,0.0362,0.0381,0.0378,0.0321,0.0309,0.0171,0.0082,-0.0095,-0.0227,-0.0347,-0.0368,-0.0401,-0.0412,-0.0416,-0.0296,-0.0204,-0.0275,0,0,0,0,0,0.0219,0.0239,0.0254,0.0307,0.0337,0.0371,0.0383,0.0384,0.0384,0.0361,0.0347,0.0235,0.0059,-0.0033,-0.0141,-0.0227,-0.0405,-0.0358,-0.0452,-0.0571,-0.0573,-0.0453,0,0,0,0,0,0,0.0231,0.0257,0.0265,0.0336,0.0368,0.0424,0.0433,0.0417,0.0409,0.0381,0.0288,0.0229,0.0048,0.0136,-0.0131,-0.0173,-0.0243,-0.0453,-0.0455,-0.057,-0.0572,-0.0573,-0.045,0,0,0,0,0]}]]